Wind_Speed
14 14 13 14 15 15 15 14 14 14 15 14 14 13 13 13 12 12 12 12 12 11 11 10 9 8 7 6 6 5 6 6 7 7 8 8 10 11 12 12 13 13 14 15
15 15 15 15 15 16 16 15 15 15 15 15 15 15 14 13 13 13 13 12 12 12 12 11 10 9 8 7 7 7 7 8 8 9 9 10 11 13 13 14 15 15 16 17
15 15 14 14 14 15 15 15 15 15 16 16 15 14 14 14 13 13 13 13 13 12 12 11 10 10 9 9 9 9 9 9 10 11 11 13 14 15 16 16 17 18 18 19
14 14 14 12 15 15 14 15 15 15 16 16 15 15 15 15 14 14 13 13 13 13 12 12 11 11 11 11 11 11 11 12 12 13 14 15 16 17 18 19 20 20 21 22
16 15 13 14 15 15 15 15 16 16 16 17 17 16 15 15 15 15 15 14 14 14 14 13 13 13 12 13 13 13 14 14 15 16 17 18 19 20 21 22 23 24 24 25
17 16 14 14 16 16 15 15 16 17 17 17 17 16 16 17 17 16 16 15 15 15 15 15 15 14 14 15 15 16 17 17 18 19 20 21 22 23 24 25 26 27 28 29
19 19 16 16 17 17 16 15 17 17 17 17 17 18 19 19 18 18 17 17 16 16 17 17 17 17 17 17 18 19 20 21 21 22 23 24 25 26 27 28 29 30 31 32
22 20 17 18 19 18 17 18 19 19 19 19 19 20 20 19 19 19 18 18 18 18 19 19 19 19 20 20 21 22 23 23 25 26 27 27 28 30 31 32 33 34 34 35
23 20 19 20 21 20 20 20 20 20 20 20 21 21 21 20 20 20 21 21 21 21 21 21 22 22 23 23 24 25 26 27 28 29 30 31 32 33 34 35 36 36 37 37
24 22 22 22 23 22 22 22 22 22 22 22 22 22 22 22 22 22 22 23 23 23 24 24 25 25 26 27 27 28 29 30 31 32 33 34 35 36 37 38 38 39 39 40
25 24 24 24 25 25 25 24 24 24 24 24 24 24 24 24 24 24 24 25 25 26 26 27 28 29 29 30 31 32 33 33 34 36 37 37 38 39 40 40 41 41 41 42
28 27 28 27 28 27 27 27 27 27 26 26 26 26 26 26 26 26 27 27 28 28 30 30 31 32 33 34 35 36 36 37 38 38 39 40 41 41 42 42 43 43 44 44
30 30 30 30 30 29 29 29 29 29 29 29 29 29 29 29 29 29 30 30 31 32 33 34 34 35 36 37 38 38 39 40 40 41 42 42 43 43 44 44 45 46 46 46
33 33 32 32 32 32 32 32 32 32 32 32 32 32 32 32 32 32 33 34 34 35 36 36 37 37 38 39 40 41 41 42 42 43 44 44 45 46 46 47 47 48 48 48
35 35 35 35 34 34 34 34 34 34 34 34 35 35 35 35 35 35 36 36 37 37 38 38 39 40 41 42 43 43 43 44 45 45 46 47 48 48 49 49 50 50 50 50
38 38 37 37 36 37 37 37 37 37 37 37 37 37 37 38 38 38 39 39 39 39 40 41 42 43 44 44 44 45 46 47 47 48 49 50 50 51 51 51 51 52 52 53
39 39 39 39 39 39 39 39 39 39 39 39 39 40 40 40 41 41 41 42 42 42 42 43 44 45 46 46 47 48 49 49 50 51 52 52 53 53 53 53 53 53 54 55
41 41 41 41 41 41 41 41 41 41 42 42 42 42 42 43 43 43 44 44 44 44 44 45 46 47 48 48 49 50 51 52 52 53 54 54 54 54 54 54 55 55 56 57
44 44 43 43 43 43 43 43 43 44 44 44 44 44 44 44 45 45 46 46 46 46 47 48 49 49 50 51 51 52 53 53 54 55 55 55 55 55 55 56 57 58 59 60
45 45 45 45 45 45 45 45 45 45 46 46 45 46 46 46 47 48 48 49 49 49 50 50 51 51 52 53 53 54 54 55 56 56 57 57 57 57 57 58 59 61 62 63
47 47 47 47 47 47 47 47 47 48 48 48 48 48 48 48 49 49 50 50 50 51 52 52 53 53 54 54 55 55 55 56 57 58 58 58 58 59 60 61 62 64 65 65
47 47 48 48 49 49 49 49 49 49 49 49 49 49 50 50 50 51 52 52 52 53 54 54 54 55 55 56 56 57 57 58 59 59 59 60 61 62 63 64 65 66 66 67
48 48 49 49 49 49 50 50 50 50 50 50 50 50 51 51 51 52 52 53 54 54 55 55 55 56 57 57 58 58 59 60 60 61 62 62 63 64 65 66 67 67 68 68
49 49 50 50 50 50 50 50 51 51 51 51 51 52 52 53 53 53 54 54 55 55 56 57 57 58 59 59 59 60 60 61 62 63 64 64 65 66 66 67 67 68 68 68
49 49 50 51 51 51 52 52 52 53 53 53 53 53 54 54 55 55 56 56 57 58 58 58 59 60 60 61 61 62 63 63 64 64 65 65 65 66 66 67 67 67 67 66
50 50 51 52 53 53 53 54 54 54 55 55 56 56 56 56 57 57 58 58 59 60 60 60 60 61 62 62 63 63 64 65 65 65 65 66 66 66 66 66 66 66 65 64
51 52 52 53 54 54 55 55 56 56 56 57 57 57 58 58 58 59 59 60 60 60 61 61 61 62 62 63 64 64 65 65 65 65 65 65 65 65 64 64 63 63 62 62
Wind_Direction
207 209 210 210 211 211 212 213 211 205 205 207 213 218 220 218 216 216 213 210 208 208 209 211 213 217 224 234 244 257 269 282 292 300 306 312 318 321 324 327 327 329 332 335
210 218 219 215 213 215 218 218 213 208 206 211 213 216 219 219 218 216 214 213 213 213 215 218 221 225 232 241 251 263 273 282 288 292 298 305 311 315 318 319 319 320 322 324
212 217 216 211 211 218 219 214 214 211 211 214 215 219 221 221 218 217 217 216 214 215 218 222 226 232 239 248 257 267 276 282 287 292 296 302 306 309 311 312 313 313 314 316
216 216 216 207 213 217 218 217 217 214 214 216 218 220 220 220 221 221 221 220 218 219 223 228 233 239 247 254 262 270 276 283 287 291 294 298 302 305 306 307 308 308 310 312
224 225 219 219 222 224 224 221 221 221 219 220 222 223 223 225 226 226 225 225 226 228 231 236 242 248 255 262 268 272 277 282 287 291 294 296 299 302 303 303 304 305 306 307
230 230 223 222 229 231 228 222 225 225 224 225 225 225 225 229 228 228 229 231 233 235 238 243 248 254 260 265 270 274 278 282 285 289 292 294 296 298 300 301 301 302 303 303
237 236 228 227 232 234 233 226 228 229 229 229 228 227 228 230 229 230 231 234 237 239 243 247 252 257 262 267 272 276 280 283 285 288 291 293 295 296 298 299 300 300 301 302
241 240 233 234 236 236 234 232 232 232 233 232 231 231 233 235 234 234 235 238 241 243 247 251 255 259 264 268 272 276 280 283 285 288 290 292 294 296 297 298 299 300 301 301
243 243 241 239 237 236 234 234 234 235 236 235 235 236 237 238 238 238 240 242 245 248 251 254 258 261 265 269 273 277 280 283 286 288 290 292 294 295 297 298 298 299 300 301
245 243 242 240 238 238 237 236 236 237 237 237 238 238 239 240 241 243 245 247 249 252 255 257 260 264 267 271 274 277 280 283 286 288 290 292 294 295 296 297 298 298 299 300
245 243 242 241 240 240 240 239 239 239 239 240 240 241 243 244 246 247 249 252 254 256 258 260 263 266 269 272 275 277 280 283 285 287 289 290 292 294 295 296 296 297 298 299
245 243 243 242 242 242 241 241 241 242 242 243 244 245 246 248 249 251 253 255 257 259 261 263 265 268 271 274 276 278 281 283 285 286 288 289 291 293 294 295 295 296 297 298
246 244 245 244 244 244 244 244 244 244 245 247 248 249 250 252 253 255 257 259 260 262 264 266 269 271 273 275 277 280 282 283 284 286 288 289 291 292 293 294 294 295 296 297
247 246 245 245 245 245 246 247 248 248 249 250 251 252 254 255 256 257 259 261 263 265 267 269 271 273 275 277 279 281 282 283 285 286 288 289 291 292 292 293 294 294 295 296
247 247 246 246 247 247 248 249 250 251 252 252 253 255 256 257 258 259 261 263 265 267 269 270 272 274 276 278 280 282 283 284 285 286 287 289 290 291 292 292 293 294 294 295
247 248 249 249 249 250 250 251 252 253 253 254 256 257 258 259 260 262 264 266 267 269 270 272 274 276 277 279 280 281 282 284 285 286 287 288 289 290 291 292 292 293 294 295
250 251 251 252 252 252 253 254 255 255 256 257 258 259 261 262 263 265 266 267 269 270 272 273 275 276 277 279 280 281 282 284 285 286 287 288 289 290 291 291 292 293 294 295
251 252 253 253 253 254 254 255 256 257 258 259 260 261 262 263 265 266 267 269 270 272 273 274 275 276 278 279 280 281 282 284 285 286 287 288 289 290 290 291 292 293 294 295
251 252 253 254 254 255 256 256 257 258 259 260 261 262 263 265 266 267 268 269 271 272 273 274 275 277 278 279 280 282 283 284 285 286 288 288 289 290 290 291 292 293 294 295
252 252 253 254 255 256 256 257 258 259 260 261 262 263 264 265 266 268 269 270 271 272 274 275 276 278 279 279 281 282 283 283 285 286 287 288 288 289 290 291 292 293 294 295
253 253 254 254 255 256 257 258 259 260 261 262 263 263 265 266 267 268 269 271 272 273 274 275 276 278 279 280 281 282 283 284 285 286 287 288 288 289 290 292 293 294 294 295
253 254 255 255 256 257 258 259 260 261 262 263 264 265 266 267 268 269 270 271 272 273 274 276 277 278 279 280 281 282 283 284 285 286 287 288 289 290 291 292 293 294 294 295
254 254 255 256 256 257 258 259 260 261 262 263 264 265 266 267 268 269 270 271 272 273 274 276 277 278 279 280 281 282 283 285 286 287 288 288 289 290 291 292 293 294 294 295
254 254 255 256 257 258 259 260 261 262 263 264 265 266 267 268 269 270 271 272 273 274 275 276 277 278 279 281 282 283 284 285 286 287 288 289 290 291 292 293 293 294 295 295
255 255 255 256 257 258 259 260 261 262 264 265 266 267 268 269 270 271 272 273 274 275 276 277 278 279 280 281 282 283 284 285 286 287 288 289 290 291 292 293 293 294 294 295
254 255 256 256 258 259 260 261 262 263 264 265 267 268 269 270 271 272 272 273 274 275 276 277 278 278 279 281 282 283 284 285 286 287 288 289 290 291 292 292 293 294 294 294
255 256 257 258 259 260 261 262 262 263 264 265 266 267 268 269 270 271 272 273 274 276 277 277 278 279 280 281 282 283 285 285 286 288 289 289 290 291 292 292 293 293 294 294
Height
5811 5813 5815 5818 5820 5823 5825 5828 5831 5834 5836 5839 5840 5842 5844 5845 5847 5848 5850 5852 5853 5855 5856 5858 5859 5860 5861 5862 5863 5863 5863 5864 5863 5863 5863 5862 5861 5860 5859 5857 5856 5854 5852 5850
5810 5812 5813 5816 5818 5820 5823 5825 5828 5831 5834 5836 5837 5839 5841 5843 5844 5846 5848 5849 5851 5852 5854 5855 5857 5858 5859 5860 5861 5861 5861 5861 5861 5861 5860 5859 5859 5857 5856 5855 5853 5851 5849 5847
5808 5809 5811 5814 5817 5818 5820 5823 5825 5828 5831 5832 5834 5836 5838 5840 5841 5843 5845 5847 5848 5850 5851 5853 5854 5855 5856 5857 5858 5858 5859 5858 5858 5858 5857 5856 5855 5854 5853 5851 5850 5848 5846 5844
5806 5808 5810 5815 5814 5816 5818 5820 5822 5825 5827 5829 5831 5833 5835 5837 5839 5840 5842 5844 5845 5847 5848 5850 5851 5852 5853 5854 5855 5855 5855 5855 5854 5854 5853 5852 5851 5850 5849 5847 5845 5843 5841 5839
5804 5805 5808 5811 5812 5814 5816 5818 5820 5822 5824 5826 5827 5829 5832 5834 5835 5837 5839 5840 5842 5844 5845 5846 5848 5849 5850 5850 5851 5851 5851 5851 5850 5850 5849 5848 5847 5845 5844 5842 5840 5838 5836 5833
5801 5802 5805 5809 5809 5810 5813 5815 5817 5818 5820 5822 5824 5826 5829 5830 5832 5833 5835 5837 5838 5840 5841 5843 5844 5845 5845 5846 5846 5846 5846 5846 5845 5845 5844 5843 5841 5840 5838 5836 5834 5832 5829 5827
5797 5798 5802 5804 5805 5807 5810 5813 5813 5814 5816 5818 5820 5823 5824 5825 5827 5829 5831 5832 5834 5835 5837 5838 5839 5840 5841 5841 5841 5841 5841 5840 5840 5839 5838 5836 5835 5833 5832 5829 5827 5825 5822 5819
5792 5794 5800 5800 5801 5803 5805 5806 5808 5809 5811 5813 5815 5817 5819 5821 5823 5824 5826 5828 5829 5831 5832 5833 5834 5835 5835 5835 5835 5835 5835 5834 5833 5832 5831 5829 5828 5826 5824 5821 5819 5816 5813 5810
5788 5792 5793 5794 5796 5797 5799 5801 5803 5805 5807 5809 5810 5812 5814 5816 5818 5819 5821 5823 5824 5825 5826 5827 5828 5829 5829 5829 5829 5828 5828 5827 5826 5825 5823 5822 5820 5818 5815 5813 5810 5807 5804 5801
5782 5785 5786 5788 5790 5792 5794 5796 5797 5799 5802 5804 5805 5807 5809 5810 5812 5814 5815 5817 5818 5819 5820 5821 5821 5822 5822 5822 5821 5821 5820 5819 5818 5816 5815 5813 5811 5808 5806 5803 5800 5797 5794 5790
5775 5778 5780 5782 5784 5786 5788 5790 5792 5794 5796 5797 5799 5801 5803 5804 5806 5807 5809 5810 5811 5812 5813 5813 5813 5814 5814 5813 5813 5812 5811 5810 5808 5807 5805 5803 5801 5798 5795 5792 5789 5786 5783 5780
5769 5771 5773 5775 5777 5779 5781 5783 5785 5787 5789 5791 5793 5794 5796 5797 5799 5800 5802 5803 5803 5804 5805 5805 5805 5805 5805 5804 5803 5802 5801 5800 5798 5796 5794 5792 5790 5787 5784 5781 5778 5775 5771 5768
5760 5762 5765 5767 5770 5771 5773 5776 5778 5780 5782 5784 5785 5787 5788 5790 5791 5792 5793 5794 5795 5795 5795 5796 5796 5795 5794 5794 5793 5792 5791 5789 5787 5785 5783 5781 5778 5775 5773 5770 5766 5762 5759 5755
5751 5753 5756 5759 5761 5763 5765 5767 5769 5771 5773 5775 5777 5778 5780 5781 5782 5783 5784 5785 5785 5786 5786 5785 5785 5785 5783 5783 5782 5780 5779 5777 5775 5773 5771 5768 5766 5763 5760 5757 5754 5750 5746 5742
5742 5744 5747 5749 5752 5754 5756 5758 5760 5762 5764 5766 5767 5769 5770 5771 5772 5773 5774 5774 5775 5775 5775 5774 5774 5773 5772 5771 5769 5768 5766 5764 5762 5760 5758 5755 5753 5750 5747 5744 5740 5737 5733 5729
5731 5734 5737 5739 5742 5744 5746 5748 5750 5752 5754 5755 5757 5758 5760 5761 5762 5762 5763 5763 5763 5763 5763 5762 5762 5761 5759 5758 5756 5755 5753 5751 5749 5747 5744 5742 5739 5736 5733 5729 5726 5722 5719 5715
5721 5724 5726 5728 5731 5733 5735 5738 5739 5741 5743 5745 5746 5747 5748 5749 5750 5750 5750 5751 5751 5751 5750 5750 5749 5747 5746 5745 5743 5741 5739 5737 5735 5732 5730 5727 5724 5721 5718 5715 5711 5708 5704 5699
5709 5712 5714 5717 5719 5721 5724 5725 5727 5729 5731 5732 5734 5735 5736 5737 5737 5737 5737 5737 5738 5738 5737 5736 5735 5733 5732 5731 5729 5727 5725 5723 5720 5718 5715 5712 5709 5706 5702 5699 5695 5692 5688 5684
5697 5699 5702 5704 5706 5709 5711 5713 5715 5716 5718 5719 5721 5722 5723 5724 5724 5724 5724 5724 5724 5724 5723 5721 5720 5719 5718 5716 5714 5712 5710 5708 5705 5702 5699 5696 5693 5690 5686 5683 5679 5675 5671 5667
5683 5686 5688 5691 5693 5695 5698 5700 5701 5703 5704 5706 5707 5708 5709 5710 5710 5710 5710 5709 5709 5709 5708 5706 5705 5704 5703 5701 5699 5697 5694 5692 5689 5686 5683 5680 5677 5674 5670 5666 5662 5658 5653 5648
5670 5672 5675 5677 5679 5682 5684 5686 5687 5689 5690 5691 5693 5694 5694 5695 5695 5695 5695 5695 5694 5693 5692 5691 5690 5688 5687 5685 5683 5680 5678 5676 5673 5670 5667 5663 5660 5656 5652 5648 5644 5639 5634 5629
5656 5658 5661 5663 5665 5667 5669 5671 5672 5674 5675 5676 5677 5678 5679 5679 5680 5679 5679 5679 5678 5677 5676 5675 5673 5672 5670 5668 5666 5664 5661 5659 5656 5652 5649 5646 5642 5638 5634 5629 5625 5620 5614 5609
5641 5643 5646 5648 5650 5652 5654 5656 5657 5658 5660 5661 5662 5663 5663 5663 5663 5663 5663 5663 5661 5661 5659 5658 5657 5655 5653 5651 5649 5647 5644 5641 5638 5634 5631 5627 5623 5619 5615 5610 5605 5600 5594 5589
5626 5628 5630 5633 5635 5637 5638 5640 5641 5642 5644 5645 5645 5646 5646 5647 5647 5646 5646 5646 5644 5644 5643 5641 5639 5638 5635 5633 5631 5629 5626 5623 5620 5616 5612 5608 5604 5600 5595 5590 5585 5580 5574 5568
5610 5613 5615 5617 5619 5621 5622 5624 5625 5627 5627 5628 5629 5629 5630 5630 5630 5630 5629 5628 5627 5626 5625 5623 5622 5619 5617 5615 5613 5610 5607 5604 5601 5597 5593 5589 5584 5580 5575 5570 5565 5559 5554 5548
5595 5597 5599 5601 5603 5604 5606 5607 5609 5610 5610 5611 5612 5612 5612 5612 5612 5612 5611 5610 5609 5608 5607 5605 5603 5601 5599 5596 5594 5591 5588 5584 5581 5577 5573 5569 5564 5560 5555 5550 5545 5539 5534 5528
5579 5581 5583 5585 5586 5588 5589 5590 5591 5592 5593 5594 5594 5594 5594 5594 5593 5593 5592 5592 5591 5589 5588 5586 5584 5582 5580 5577 5574 5571 5568 5564 5561 5557 5553 5549 5544 5540 5535 5530 5525 5519 5514 5509